Weather History for Pierre, SD

Change the Weather History Date:

Tuesday, November 6, 2012

  Actual Average Record
Temperature  
Mean Temperature 43 °F 39 °F  
Max Temperature 56 °F 50 °F 76 °F (1934)
Min Temperature 30 °F 28 °F -4 °F (1959)
Degree Days  
Heating Degree Days 22 26  
Month to date heating degree days 165 150  
Since 1 July heating degree days 820 831  
Cooling Degree Days 0 0  
Month to date cooling degree days 0 0  
Year to date cooling degree days 1112 868  
Moisture  
Dew Point 28 °F    
Average Humidity 54    
Maximum Humidity 82    
Minimum Humidity 26    
Precipitation  
Precipitation 0.00 in 0.03 in 0.73 in (1946)
Month to date precipitation 0.07 0.18  
Year to date precipitation 10.53 18.88  
Snow  
Snow 0.00 in 0.10 in 4.60 in (1896)
Month to date snowfall 0.0 0.7  
Since 1 July snowfall 0.0 1.7  
Snow Depth 0.00 in    
Sea Level Pressure  
Sea Level Pressure 30.09 in    
Wind  
Wind Speed 15 mph (NW)    
Max Wind Speed 33 mph    
Max Gust Speed 41 mph    
Visibility 10 miles    
Events      
T = Trace of Precipitation, MM = Missing Value Source: NWS Daily Summary

Daily Weather History Graph

Daily Weather History Graph

Search for Another Location

Airport:

Trip Planner

Search our weather history database for the weather conditions in past years. The results will help you decide how hot, cold, wet, or windy it might be!

Date:

Astronomy

Nov. 06, 2012 Rise Set
Actual Time 7:25 AM CST 5:23 PM CST
Civil Twilight 6:55 AM CST 5:53 PM CST
Nautical Twilight 6:20 AM CST 6:28 PM CST
Astronomical Twilight 5:46 AM CST 7:02 PM CST
Moon No Moon Rise 1:16 PM CST (11/6)
Length of Visible Light 10h 58m
Length of Day
9h 57m
Waning Gibbous, 53% of the Moon is Illuminated
Nov 6
Waning Gibbous
Nov 6
Last Quarter
Nov 13
New
Nov 20
First Quarter
Nov 28
Full

Hourly Weather History & Observations

Time (CST) Temp. Windchill Dew Point Humidity Pressure Visibility Wind Dir Wind Speed Gust Speed Precip Events Conditions
12:53 AM 43.0 °F 36.0 °F 37.0 °F 80% 29.98 in 10.0 mi NW 13.8 mph - N/A   Clear
1:53 AM 43.0 °F 35.7 °F 35.1 °F 74% 30.01 in 10.0 mi NW 15.0 mph - N/A   Clear
2:53 AM 41.0 °F 33.9 °F 34.0 °F 76% 30.05 in 10.0 mi NW 12.7 mph - N/A   Clear
3:53 AM 41.0 °F 32.8 °F 33.1 °F 73% 30.05 in 10.0 mi WNW 16.1 mph - N/A   Clear
4:53 AM 39.9 °F 32.5 °F 32.0 °F 73% 30.06 in 10.0 mi WNW 12.7 mph - N/A   Clear
5:53 AM 39.0 °F 31.4 °F 30.9 °F 73% 30.08 in 10.0 mi WNW 12.7 mph - N/A   Clear
6:53 AM 39.0 °F 29.3 °F 30.0 °F 70% 30.09 in 10.0 mi WNW 19.6 mph 26.5 mph N/A   Clear
7:53 AM 39.9 °F 30.8 °F 28.9 °F 65% 30.11 in 10.0 mi WNW 18.4 mph - N/A   Clear
8:53 AM 43.0 °F 35.4 °F 30.0 °F 60% 30.13 in 10.0 mi NW 16.1 mph 25.3 mph N/A   Clear
9:53 AM 46.0 °F 37.2 °F 30.0 °F 54% 30.12 in 10.0 mi NW 26.5 mph 31.1 mph N/A   Clear
10:53 AM 50.0 °F - 30.0 °F 46% 30.13 in 10.0 mi NW 23.0 mph 31.1 mph N/A   Clear
11:53 AM 53.1 °F - 27.0 °F 37% 30.10 in 10.0 mi NW 29.9 mph 39.1 mph N/A   Clear
12:53 PM 55.0 °F - 26.1 °F 33% 30.09 in 10.0 mi WNW 24.2 mph 36.8 mph N/A   Clear
1:53 PM 55.0 °F - 24.1 °F 30% 30.08 in 10.0 mi NNW 24.2 mph 33.4 mph N/A   Clear
2:53 PM 55.9 °F - 23.0 °F 28% 30.08 in 10.0 mi NW 19.6 mph 28.8 mph N/A   Clear
3:53 PM 55.0 °F - 21.9 °F 28% 30.09 in 10.0 mi NW 19.6 mph - N/A   Clear
4:53 PM 53.1 °F - 23.0 °F 31% 30.10 in 10.0 mi NW 13.8 mph - N/A   Clear
5:53 PM 44.1 °F 38.6 °F 24.1 °F 45% 30.12 in 10.0 mi NNW 10.4 mph - N/A   Clear
6:53 PM 41.0 °F 34.3 °F 25.0 °F 53% 30.13 in 10.0 mi NNW 11.5 mph - N/A   Clear
7:53 PM 39.9 °F 35.1 °F 25.0 °F 55% 30.13 in 10.0 mi West 6.9 mph - N/A   Clear
8:53 PM 35.1 °F 28.6 °F 24.1 °F 64% 30.14 in 10.0 mi NW 8.1 mph - N/A   Clear
9:53 PM 35.1 °F 29.3 °F 26.1 °F 70% 30.12 in 10.0 mi NW 6.9 mph - N/A   Clear
10:53 PM 33.1 °F 28.7 °F 24.1 °F 70% 30.12 in 10.0 mi West 4.6 mph - N/A   Clear
11:53 PM 33.1 °F 28.7 °F 23.0 °F 66% 30.13 in 10.0 mi WSW 4.6 mph - N/A   Clear